#timestamp,LO_Frequency,Hit 
1499904015.3,286047101.9,N
1499904035.1,286047097.6,N
1499904055.9,286047091.2,N
1499904075.7,286047087.1,N
1499904095.5,286047081.7,N
1499904115.4,286047083.7,N
1499904135.2,286047084.1,N
1499904155.0,286047091.9,N
1499904155.9,286047091.9,N
1499904175.8,286047094.9,N
1499904195.6,286047098.5,N
1499904215.4,286047099.0,N
1499904235.2,286047101.7,N
1499904255.1,286047101.9,N
1499904256.0,286047101.9,N
1499904275.8,286047101.4,N
1499904295.6,286047098.5,N
1499904315.5,286047095.9,N
1499904335.3,286047095.4,N
1499904355.1,286047098.8,N
1499904375.9,286047097.8,N
1499904395.7,286047098.1,N
1499904415.5,286047097.0,N
1499904435.4,286047096.2,N
1499904455.2,286047101.7,N
1499904475.0,286047101.3,N
1499904475.9,286047101.3,N
1499904495.8,286047099.2,N
1499904515.6,286047103.5,N
1499904535.4,286047111.4,N
1499904555.3,286047110.6,N
1499904575.1,286047109.8,N
1499904576.0,286047109.8,N
1499904595.8,286047102.1,N
1499904615.6,286047105.6,N
1499904635.5,286047111.4,N
1499904655.3,286047110.4,N
1499904675.1,286047110.9,N
1499904695.9,286047112.5,N
1499904715.7,286047112.3,N
1499904735.5,286047114.3,N
1499904755.4,286047114.7,N
1499904775.2,286047109.5,N
1499904795.0,286047102.5,N
1499904795.9,286047102.5,N
1499904815.8,286047098.0,N
1499904835.6,286047098.4,N
1499904855.4,286047098.6,N
1499904875.3,286047098.9,N
1499904895.1,286047095.6,N
1499904896.0,286047095.6,N
1499904915.8,286047090.5,N
1499904935.7,286047091.3,N
1499904955.5,286047097.2,N
1499904975.3,286047097.5,N
1499904995.1,286047099.3,N
1499905015.9,286047101.5,N
1499905035.7,286047104.5,N
1499905055.5,286047106.5,N
1499905075.4,286047106.5,N
1499905095.2,286047106.1,N
1499905115.0,286047109.6,N
1499905115.9,286047109.6,N
1499905135.8,286047109.7,N
1499905155.6,286047105.5,N
1499905175.4,286047103.3,N
1499905195.3,286047104.9,N
1499905215.1,286047101.1,N
1499905216.0,286047101.1,N
1499905235.8,286047102.9,N
1499905255.7,286047104.2,N
1499905275.5,286047107.6,N
1499905295.3,286047110.0,N
1499905315.2,286047111.5,N
1499905335.9,286047108.9,N
1499905355.7,286047109.0,N
1499905375.6,286047108.9,N
1499905395.4,286047112.9,N
1499905415.2,286047110.3,N
1499905435.0,286047113.5,N
1499905435.9,286047113.5,N
1499905455.8,286047114.1,N
1499905475.6,286047114.3,N
1499905495.4,286047114.4,N
1499905515.3,286047112.1,N
1499905535.1,286047110.2,N
1499905555.8,286047113.5,N
1499905575.7,286047115.4,N
1499905595.5,286047115.2,N
1499905615.3,286047116.0,N
1499905635.2,286047114.4,N
1499905655.9,286047109.5,N
1499905675.7,286047106.9,N
1499905695.6,286047109.5,N
1499905715.4,286047109.0,N
1499905735.2,286047108.7,N
1499905755.1,286047106.9,N
1499905756.0,286047106.9,N
1499905775.8,286047110.9,N
1499905795.6,286047111.7,N
1499905815.4,286047113.9,N
1499905835.3,286047113.2,N
1499905855.1,286047111.6,N
1499905875.8,286047110.3,N
1499905895.7,286047116.4,N
1499905915.5,286047113.9,N
1499905935.3,286047111.9,N
1499905955.2,286047113.4,N
1499905975.9,286047119.3,N
1499905995.7,286047116.9,N
1499906015.6,286047113.4,N
1499906035.4,286047115.1,N
1499906055.2,286047117.1,N
1499906075.1,286047114.0,N
1499906076.0,286047114.0,N
1499906095.8,286047110.1,N
1499906115.6,286047113.0,N
1499906135.5,286047113.3,N
1499906155.3,286047111.9,N
1499906175.1,286047112.5,N
1499906195.9,286047111.6,N
1499906215.7,286047111.2,N
1499906235.5,286047108.6,N
1499906255.3,286047112.8,N
1499906275.2,286047114.7,N
1499906295.0,286047113.9,N
1499906295.9,286047113.9,N
1499906315.7,286047111.0,N
1499906335.6,286047106.3,N
1499906355.4,286047109.2,N
1499906375.2,286047112.9,N
1499906395.1,286047112.3,N
1499906396.0,286047112.3,N
1499906415.8,286047113.1,N
1499906435.6,286047113.2,N
1499906455.5,286047112.6,N
1499906475.3,286047113.5,N
1499906495.1,286047113.6,N
1499906515.9,286047118.9,N
1499906535.7,286047120.1,N
1499906555.5,286047118.3,N
1499906575.4,286047118.1,N
1499906595.2,286047121.5,N
1499906615.0,286047120.8,N
1499906615.9,286047120.8,N
1499906635.8,286047119.5,N
1499906655.6,286047117.6,N
1499906675.4,286047119.2,N
1499906695.2,286047117.0,N
1499906715.1,286047120.5,N
1499906716.0,286047120.5,N
1499906735.8,286047121.4,N
1499906755.6,286047122.3,N
1499906775.5,286047118.5,N
1499906795.3,286047119.5,N
1499906815.1,286047119.3,N
1499906835.9,286047123.3,N
1499906855.7,286047120.0,N
1499906875.5,286047121.2,N
1499906895.4,286047122.6,N
1499906915.2,286047123.3,N
1499906935.0,286047125.3,N
1499906935.9,286047125.3,N
1499906955.8,286047121.9,N
1499906975.6,286047120.5,N
1499906995.4,286047118.2,N
1499907015.3,286047117.1,N
1499907035.1,286047117.8,N
1499907036.0,286047117.8,N
1499907055.8,286047117.0,N
1499907075.7,286047116.6,N
1499907095.5,286047120.8,N
1499907115.3,286047122.0,N
1499907135.1,286047119.8,N
1499907155.9,286047119.1,N
1499907175.7,286047117.4,N
1499907195.5,286047119.6,N
1499907215.4,286047114.9,N
1499907235.2,286047116.9,N
1499907255.0,286047118.0,N
1499907255.9,286047118.0,N
1499907275.8,286047115.5,N
1499907295.6,286047117.3,N
1499907315.4,286047119.8,N
1499907335.3,286047127.3,N
1499907355.1,286047126.7,N
1499907356.0,286047126.7,N
1499907375.8,286047127.3,N
1499907395.7,286047127.6,N
1499907415.5,286047127.1,N
1499907435.3,286047126.7,N
1499907455.2,286047125.0,N
1499907475.9,286047125.1,N
1499907495.7,286047122.9,N
1499907515.6,286047121.9,N
1499907535.4,286047125.4,N
1499907555.2,286047126.2,N
1499907575.0,286047127.4,N
1499907576.0,286047127.4,N
1499907595.8,286047125.0,N
